Location: ??????
(41.3164°N, 22.6615°E)
Time: 13:28:30
(UTC+00:00)

CAS-4A - Pass Details

Date: 07 July 2022
Orbit: 521 x 537 km, 43.0° (Epoch: 13 August)

Event Time Altitude Azimuth Distance (km) Brightness Sun altitude
Exits shadow 00:46:28 18° 283° (WNW) 1,305 ? -19.1°
Maximum altitude 00:49:18 69° 4° (N) 561 ? -18.8°
Drops below altitude 10° 00:53:19 10° 89° (E) 1,759 ? -18.4°
Sets 00:55:33 0° 92° (E) 2,650 ? -18.2°
